Satellite: HRBE Catalog number: 37855 Epoch time: 13354.83906802 Element set: 669 Inclination: 101.7091 deg RA of node: 296.0326 deg Eccentricity: 0.0227574 Arg of perigee: 210.2044 deg Mean anomaly: 215.8568 deg Mean motion: 14.86513167 rev/day Decay rate: 7.065e-05 rev/day^2 Epoch rev: 11615 Checksum: 305
Satellite: RS-39 Catalog number: 38051 Epoch time: 13354.96817612 Element set: 83 Inclination: 051.6345 deg RA of node: 025.0241 deg Eccentricity: 0.0006950 Arg of perigee: 226.4444 deg Mean anomaly: 203.1885 deg Mean motion: 15.40363469 rev/day Decay rate: 4.1139e-04 rev/day^2 Epoch rev: 10648 Checksum: 293
Satellite: E-STAR Catalog number: 38079 Epoch time: 13354.69582119 Element set: 681 Inclination: 069.4684 deg RA of node: 088.1194 deg Eccentricity: 0.0523322 Arg of perigee: 246.7269 deg Mean anomaly: 268.6814 deg Mean motion: 14.70030985 rev/day Decay rate: 1.02217e-03 rev/day^2 Epoch rev: 9690 Checksum: 336
Satellite: GOLIAT Catalog number: 38085 Epoch time: 13354.66072869 Element set: 643 Inclination: 069.4733 deg RA of node: 092.1971 deg Eccentricity: 0.0537499 Arg of perigee: 248.6686 deg Mean anomaly: 105.6277 deg Mean motion: 14.66789389 rev/day Decay rate: 9.8143e-04 rev/day^2 Epoch rev: 9679 Checksum: 387
Satellite: HORYU-2 Catalog number: 38340 Epoch time: 13354.11813188 Element set: 706 Inclination: 098.2401 deg RA of node: 303.6668 deg Eccentricity: 0.0013249 Arg of perigee: 028.1362 deg Mean anomaly: 332.0553 deg Mean motion: 14.71569077 rev/day Decay rate: 3.180e-05 rev/day^2 Epoch rev: 8545 Checksum: 288
Satellite: RS-40 Catalog number: 38736 Epoch time: 13354.58666401 Element set: 455 Inclination: 082.4812 deg RA of node: 038.9072 deg Eccentricity: 0.0020162 Arg of perigee: 279.9556 deg Mean anomaly: 079.9251 deg Mean motion: 12.42874782 rev/day Decay rate: 1.0e-07 rev/day^2 Epoch rev: 6340 Checksum: 308
Satellite: PROITERES Catalog number: 38756 Epoch time: 13354.88551933 Element set: 408 Inclination: 098.2398 deg RA of node: 075.2413 deg Eccentricity: 0.0011482 Arg of perigee: 229.2272 deg Mean anomaly: 130.7924 deg Mean motion: 14.74532194 rev/day Decay rate: 1.611e-05 rev/day^2 Epoch rev: 6890 Checksum: 308
Satellite: RAIKO Catalog number: 38852 Epoch time: 13218.07382584 Element set: 340 Inclination: 051.6160 deg RA of node: 184.0336 deg Eccentricity: 0.0004489 Arg of perigee: 261.9162 deg Mean anomaly: 100.6538 deg Mean motion: 16.48474690 rev/day Decay rate: 2.4681979e-01 rev/day^2 Epoch rev: 4784 Checksum: 326
Satellite: BEESAT-3 Catalog number: 39134 Epoch time: 13354.35921514 Element set: 452 Inclination: 064.8776 deg RA of node: 343.2375 deg Eccentricity: 0.0010284 Arg of perigee: 334.5904 deg Mean anomaly: 025.4706 deg Mean motion: 15.02216690 rev/day Decay rate: 1.0204e-04 rev/day^2 Epoch rev: 3677 Checksum: 282
Satellite: BEESAT-2 Catalog number: 39136 Epoch time: 13354.50559930 Element set: 441 Inclination: 064.8770 deg RA of node: 342.8732 deg Eccentricity: 0.0010333 Arg of perigee: 333.6217 deg Mean anomaly: 026.4370 deg Mean motion: 15.01984008 rev/day Decay rate: 9.068e-05 rev/day^2 Epoch rev: 3679 Checksum: 296
Satellite: CAPE-1 Catalog number: 39380 Epoch time: 13354.43625435 Element set: 44 Inclination: 040.5180 deg RA of node: 073.4366 deg Eccentricity: 0.0003707 Arg of perigee: 171.2987 deg Mean anomaly: 188.7852 deg Mean motion: 15.21151990 rev/day Decay rate: 6.858e-05 rev/day^2 Epoch rev: 463 Checksum: 301
Satellite: TRLBLAZER Catalog number: 39382 Epoch time: 13354.48458936 Element set: 44 Inclination: 040.5052 deg RA of node: 072.8811 deg Eccentricity: 0.0001139 Arg of perigee: 123.6153 deg Mean anomaly: 236.4565 deg Mean motion: 15.23062455 rev/day Decay rate: 4.4026e-04 rev/day^2 Epoch rev: 463 Checksum: 274
Satellite: TECHEDST3 Catalog number: 39415 Epoch time: 13354.93609218 Element set: 60 Inclination: 051.6468 deg RA of node: 261.5112 deg Eccentricity: 0.0008077 Arg of perigee: 174.3553 deg Mean anomaly: 240.5629 deg Mean motion: 15.66174116 rev/day Decay rate: 4.27797e-03 rev/day^2 Epoch rev: 476 Checksum: 308
Satellite: ZACUBE-1 Catalog number: 39417 Epoch time: 13354.94637029 Element set: 92 Inclination: 097.7965 deg RA of node: 066.6173 deg Eccentricity: 0.0065100 Arg of perigee: 101.1839 deg Mean anomaly: 259.6639 deg Mean motion: 14.77242610 rev/day Decay rate: 3.017e-05 rev/day^2 Epoch rev: 437 Checksum: 307
Satellite: TRITON-1 Catalog number: 39427 Epoch time: 13354.17566237 Element set: 24 Inclination: 097.7886 deg RA of node: 065.2976 deg Eccentricity: 0.0121115 Arg of perigee: 099.6601 deg Mean anomaly: 261.8267 deg Mean motion: 14.64668570 rev/day Decay rate: 2.627e-05 rev/day^2 Epoch rev: 418 Checksum: 325
Satellite: DELFIN3XT Catalog number: 39428 Epoch time: 13354.15805260 Element set: 26 Inclination: 097.7866 deg RA of node: 065.1646 deg Eccentricity: 0.0132321 Arg of perigee: 099.4338 deg Mean anomaly: 262.1770 deg Mean motion: 14.62136383 rev/day Decay rate: 4.276e-05 rev/day^2 Epoch rev: 416 Checksum: 299
Satellite: GOMX-1 Catalog number: 39430 Epoch time: 13354.89462312 Element set: 61 Inclination: 097.7840 deg RA of node: 065.5864 deg Eccentricity: 0.0159361 Arg of perigee: 097.0679 deg Mean anomaly: 264.8621 deg Mean motion: 14.56131650 rev/day Decay rate: 2.516e-05 rev/day^2 Epoch rev: 426 Checksum: 306
Satellite: $50SAT Catalog number: 39436 Epoch time: 13354.74409240 Element set: 23 Inclination: 097.7992 deg RA of node: 066.7344 deg Eccentricity: 0.0031380 Arg of perigee: 115.8257 deg Mean anomaly: 244.5826 deg Mean motion: 14.84414022 rev/day Decay rate: 1.9532e-04 rev/day^2 Epoch rev: 435 Checksum: 298
Satellite: PUCPSAT-1 Catalog number: 39442 Epoch time: 13354.45946638 Element set: 17 Inclination: 097.8009 deg RA of node: 066.4941 deg Eccentricity: 0.0036967 Arg of perigee: 111.1808 deg Mean anomaly: 249.3326 deg Mean motion: 14.84796203 rev/day Decay rate: 4.682e-05 rev/day^2 Epoch rev: 309 Checksum: 320
/EX
participants (1)
-
Ray Hoad